owner,sensor,date,latitude,longitude,vertical_datum,sea_water_temperature,qcFlag 
DISL,ioos:station:DISL:DISL:1,2010-10-01T00:00:00Z,30.2513,-88.0778,-1.72,25.69,2 
DISL,ioos:station:DISL:DISL:1,2010-10-01T00:30:00Z,30.2513,-88.0778,-1.72,25.56,2 
DISL,ioos:station:DISL:DISL:1,2010-10-01T01:00:00Z,30.2513,-88.0778,-1.72,25.42,2 
DISL,ioos:station:DISL:DISL:1,2010-10-01T01:30:00Z,30.2513,-88.0778,-1.72,25.34,2 
DISL,ioos:station:DISL:DISL:1,2010-10-01T02:00:00Z,30.2513,-88.0778,-1.72,25.19,2 
DISL,ioos:station:DISL:DISL:1,2010-10-01T02:30:00Z,30.2513,-88.0778,-1.72,25.04,2 
DISL,ioos:station:DISL:DISL:1,2010-10-01T03:00:00Z,30.2513,-88.0778,-1.72,24.93,2 
DISL,ioos:station:DISL:DISL:1,2010-10-01T03:30:00Z,30.2513,-88.0778,-1.72,24.97,2 
DISL,ioos:station:DISL:DISL:1,2010-10-01T04:00:00Z,30.2513,-88.0778,-1.72,24.73,2 
DISL,ioos:station:DISL:DISL:1,2010-10-01T04:30:00Z,30.2513,-88.0778,-1.72,24.59,2 
DISL,ioos:station:DISL:DISL:1,2010-10-01T05:00:00Z,30.2513,-88.0778,-1.72,24.49,2 
DISL,ioos:station:DISL:DISL:1,2010-10-01T05:30:00Z,30.2513,-88.0778,-1.72,25.06,2 
DISL,ioos:station:DISL:DISL:1,2010-10-01T06:00:00Z,30.2513,-88.0778,-1.72,25.24,2 
DISL,ioos:station:DISL:DISL:1,2010-10-01T06:30:00Z,30.2513,-88.0778,-1.72,25.65,2 
DISL,ioos:station:DISL:DISL:1,2010-10-01T07:00:00Z,30.2513,-88.0778,-1.72,24.96,2 
DISL,ioos:station:DISL:DISL:1,2010-10-01T07:30:00Z,30.2513,-88.0778,-1.72,24.34,2 
DISL,ioos:station:DISL:DISL:1,2010-10-01T08:00:00Z,30.2513,-88.0778,-1.72,23.93,2 
DISL,ioos:station:DISL:DISL:1,2010-10-01T08:30:00Z,30.2513,-88.0778,-1.72,23.81,2 
DISL,ioos:station:DISL:DISL:1,2010-10-01T09:00:00Z,30.2513,-88.0778,-1.72,23.72,2 
DISL,ioos:station:DISL:DISL:1,2010-10-01T09:30:00Z,30.2513,-88.0778,-1.72,23.64,2 
DISL,ioos:station:DISL:DISL:1,2010-10-01T10:00:00Z,30.2513,-88.0778,-1.72,23.6,2 
DISL,ioos:station:DISL:DISL:1,2010-10-01T10:30:00Z,30.2513,-88.0778,-1.72,23.54,2 
DISL,ioos:station:DISL:DISL:1,2010-10-01T11:00:00Z,30.2513,-88.0778,-1.72,23.49,2 
DISL,ioos:station:DISL:DISL:1,2010-10-01T11:30:00Z,30.2513,-88.0778,-1.72,23.41,2 
DISL,ioos:station:DISL:DISL:1,2010-10-01T12:00:00Z,30.2513,-88.0778,-1.72,23.37,2 
DISL,ioos:station:DISL:DISL:1,2010-10-01T12:30:00Z,30.2513,-88.0778,-1.72,23.29,2 
DISL,ioos:station:DISL:DISL:1,2010-10-01T13:00:00Z,30.2513,-88.0778,-1.72,23.13,2 
DISL,ioos:station:DISL:DISL:1,2010-10-01T13:30:00Z,30.2513,-88.0778,-1.72,22.93,2 
DISL,ioos:station:DISL:DISL:1,2010-10-01T14:00:00Z,30.2513,-88.0778,-1.72,23.48,2 
DISL,ioos:station:DISL:DISL:1,2010-10-01T14:30:00Z,30.2513,-88.0778,-1.72,23.76,2 
DISL,ioos:station:DISL:DISL:1,2010-10-01T15:00:00Z,30.2513,-88.0778,-1.72,23.61,2 
DISL,ioos:station:DISL:DISL:1,2010-10-01T15:30:00Z,30.2513,-88.0778,-1.72,24.01,2 
DISL,ioos:station:DISL:DISL:1,2010-10-01T16:00:00Z,30.2513,-88.0778,-1.72,24.12,2 
DISL,ioos:station:DISL:DISL:1,2010-10-01T16:30:00Z,30.2513,-88.0778,-1.72,24.24,2 
DISL,ioos:station:DISL:DISL:1,2010-10-01T17:00:00Z,30.2513,-88.0778,-1.72,24.39,2 
DISL,ioos:station:DISL:DISL:1,2010-10-01T17:30:00Z,30.2513,-88.0778,-1.72,24.57,2 
DISL,ioos:station:DISL:DISL:1,2010-10-01T18:00:00Z,30.2513,-88.0778,-1.72,24.79,2 
DISL,ioos:station:DISL:DISL:1,2010-10-01T18:30:00Z,30.2513,-88.0778,-1.72,25.0,2 
DISL,ioos:station:DISL:DISL:1,2010-10-01T19:00:00Z,30.2513,-88.0778,-1.72,25.18,2 
DISL,ioos:station:DISL:DISL:1,2010-10-01T19:30:00Z,30.2513,-88.0778,-1.72,25.2,2 
DISL,ioos:station:DISL:DISL:1,2010-10-01T20:00:00Z,30.2513,-88.0778,-1.72,25.62,2 
DISL,ioos:station:DISL:DISL:1,2010-10-01T20:30:00Z,30.2513,-88.0778,-1.72,25.76,2 
DISL,ioos:station:DISL:DISL:1,2010-10-01T21:00:00Z,30.2513,-88.0778,-1.72,25.79,2 
DISL,ioos:station:DISL:DISL:1,2010-10-01T21:30:00Z,30.2513,-88.0778,-1.72,25.81,2 
DISL,ioos:station:DISL:DISL:1,2010-10-01T22:00:00Z,30.2513,-88.0778,-1.72,25.82,2 
DISL,ioos:station:DISL:DISL:1,2010-10-01T22:30:00Z,30.2513,-88.0778,-1.72,25.78,2 
DISL,ioos:station:DISL:DISL:1,2010-10-01T23:00:00Z,30.2513,-88.0778,-1.72,25.75,2 
DISL,ioos:station:DISL:DISL:1,2010-10-01T23:30:00Z,30.2513,-88.0778,-1.72,25.62,2 
DISL,ioos:station:DISL:DISL:1,2010-10-02T00:00:00Z,30.2513,-88.0778,-1.72,25.54,2 
DISL,ioos:station:DISL:DISL:1,2010-10-02T00:30:00Z,30.2513,-88.0778,-1.72,25.5,2 
DISL,ioos:station:DISL:DISL:1,2010-10-02T01:00:00Z,30.2513,-88.0778,-1.72,25.53,2 
DISL,ioos:station:DISL:DISL:1,2010-10-02T01:30:00Z,30.2513,-88.0778,-1.72,25.51,2 
DISL,ioos:station:DISL:DISL:1,2010-10-02T02:00:00Z,30.2513,-88.0778,-1.72,25.53,2 
DISL,ioos:station:DISL:DISL:1,2010-10-02T02:30:00Z,30.2513,-88.0778,-1.72,25.43,2 
DISL,ioos:station:DISL:DISL:1,2010-10-02T03:00:00Z,30.2513,-88.0778,-1.72,25.2,2 
DISL,ioos:station:DISL:DISL:1,2010-10-02T03:30:00Z,30.2513,-88.0778,-1.72,24.97,2 
DISL,ioos:station:DISL:DISL:1,2010-10-02T04:00:00Z,30.2513,-88.0778,-1.72,24.81,2 
DISL,ioos:station:DISL:DISL:1,2010-10-02T04:30:00Z,30.2513,-88.0778,-1.72,24.78,2 
DISL,ioos:station:DISL:DISL:1,2010-10-02T05:00:00Z,30.2513,-88.0778,-1.72,24.67,2 
DISL,ioos:station:DISL:DISL:1,2010-10-02T05:30:00Z,30.2513,-88.0778,-1.72,24.81,2 
DISL,ioos:station:DISL:DISL:1,2010-10-02T06:00:00Z,30.2513,-88.0778,-1.72,24.58,2 
DISL,ioos:station:DISL:DISL:1,2010-10-02T06:30:00Z,30.2513,-88.0778,-1.72,24.96,2 
DISL,ioos:station:DISL:DISL:1,2010-10-02T07:00:00Z,30.2513,-88.0778,-1.72,25.41,2 
DISL,ioos:station:DISL:DISL:1,2010-10-02T07:30:00Z,30.2513,-88.0778,-1.72,25.95,2 
DISL,ioos:station:DISL:DISL:1,2010-10-02T08:00:00Z,30.2513,-88.0778,-1.72,25.99,2 
DISL,ioos:station:DISL:DISL:1,2010-10-02T08:30:00Z,30.2513,-88.0778,-1.72,25.97,2 
DISL,ioos:station:DISL:DISL:1,2010-10-02T09:00:00Z,30.2513,-88.0778,-1.72,25.32,2 
DISL,ioos:station:DISL:DISL:1,2010-10-02T09:30:00Z,30.2513,-88.0778,-1.72,24.28,2 
DISL,ioos:station:DISL:DISL:1,2010-10-02T10:00:00Z,30.2513,-88.0778,-1.72,23.88,2 
DISL,ioos:station:DISL:DISL:1,2010-10-02T10:30:00Z,30.2513,-88.0778,-1.72,23.48,2 
DISL,ioos:station:DISL:DISL:1,2010-10-02T11:00:00Z,30.2513,-88.0778,-1.72,23.28,2 
DISL,ioos:station:DISL:DISL:1,2010-10-02T11:30:00Z,30.2513,-88.0778,-1.72,23.11,2 
DISL,ioos:station:DISL:DISL:1,2010-10-02T12:00:00Z,30.2513,-88.0778,-1.72,22.92,2 
DISL,ioos:station:DISL:DISL:1,2010-10-02T12:30:00Z,30.2513,-88.0778,-1.72,22.76,2 
DISL,ioos:station:DISL:DISL:1,2010-10-02T13:00:00Z,30.2513,-88.0778,-1.72,22.67,2 
DISL,ioos:station:DISL:DISL:1,2010-10-02T13:30:00Z,30.2513,-88.0778,-1.72,22.64,2 
DISL,ioos:station:DISL:DISL:1,2010-10-02T14:00:00Z,30.2513,-88.0778,-1.72,22.61,2 
DISL,ioos:station:DISL:DISL:1,2010-10-02T14:30:00Z,30.2513,-88.0778,-1.72,22.6,2 
DISL,ioos:station:DISL:DISL:1,2010-10-02T15:00:00Z,30.2513,-88.0778,-1.72,22.78,2 
DISL,ioos:station:DISL:DISL:1,2010-10-02T15:30:00Z,30.2513,-88.0778,-1.72,23.16,2 
DISL,ioos:station:DISL:DISL:1,2010-10-02T16:00:00Z,30.2513,-88.0778,-1.72,23.46,2 
DISL,ioos:station:DISL:DISL:1,2010-10-02T16:30:00Z,30.2513,-88.0778,-1.72,23.84,2 
DISL,ioos:station:DISL:DISL:1,2010-10-02T17:00:00Z,30.2513,-88.0778,-1.72,24.08,2 
DISL,ioos:station:DISL:DISL:1,2010-10-02T17:30:00Z,30.2513,-88.0778,-1.72,24.33,2 
DISL,ioos:station:DISL:DISL:1,2010-10-02T18:00:00Z,30.2513,-88.0778,-1.72,24.61,2 
DISL,ioos:station:DISL:DISL:1,2010-10-02T18:30:00Z,30.2513,-88.0778,-1.72,24.79,2 
DISL,ioos:station:DISL:DISL:1,2010-10-02T19:00:00Z,30.2513,-88.0778,-1.72,25.01,2 
DISL,ioos:station:DISL:DISL:1,2010-10-02T19:30:00Z,30.2513,-88.0778,-1.72,25.03,2 
DISL,ioos:station:DISL:DISL:1,2010-10-02T20:00:00Z,30.2513,-88.0778,-1.72,25.13,2 
DISL,ioos:station:DISL:DISL:1,2010-10-02T20:30:00Z,30.2513,-88.0778,-1.72,25.21,2 
DISL,ioos:station:DISL:DISL:1,2010-10-02T21:00:00Z,30.2513,-88.0778,-1.72,25.28,2 
DISL,ioos:station:DISL:DISL:1,2010-10-02T21:30:00Z,30.2513,-88.0778,-1.72,25.29,2 
DISL,ioos:station:DISL:DISL:1,2010-10-02T22:00:00Z,30.2513,-88.0778,-1.72,25.21,2 
DISL,ioos:station:DISL:DISL:1,2010-10-02T22:30:00Z,30.2513,-88.0778,-1.72,24.94,2 
DISL,ioos:station:DISL:DISL:1,2010-10-02T23:00:00Z,30.2513,-88.0778,-1.72,24.97,2 
DISL,ioos:station:DISL:DISL:1,2010-10-02T23:30:00Z,30.2513,-88.0778,-1.72,24.92,2 
DISL,ioos:station:DISL:DISL:1,2010-10-03T00:00:00Z,30.2513,-88.0778,-1.72,24.85,2 
DISL,ioos:station:DISL:DISL:1,2010-10-03T00:30:00Z,30.2513,-88.0778,-1.72,24.83,2 
DISL,ioos:station:DISL:DISL:1,2010-10-03T01:00:00Z,30.2513,-88.0778,-1.72,24.82,2 
DISL,ioos:station:DISL:DISL:1,2010-10-03T01:30:00Z,30.2513,-88.0778,-1.72,24.76,2 
DISL,ioos:station:DISL:DISL:1,2010-10-03T02:00:00Z,30.2513,-88.0778,-1.72,24.79,2 
DISL,ioos:station:DISL:DISL:1,2010-10-03T02:30:00Z,30.2513,-88.0778,-1.72,24.69,2 
DISL,ioos:station:DISL:DISL:1,2010-10-03T03:00:00Z,30.2513,-88.0778,-1.72,24.66,2 
DISL,ioos:station:DISL:DISL:1,2010-10-03T03:30:00Z,30.2513,-88.0778,-1.72,24.55,2 
DISL,ioos:station:DISL:DISL:1,2010-10-03T04:00:00Z,30.2513,-88.0778,-1.72,24.17,2 
DISL,ioos:station:DISL:DISL:1,2010-10-03T04:30:00Z,30.2513,-88.0778,-1.72,24.04,2 
DISL,ioos:station:DISL:DISL:1,2010-10-03T05:00:00Z,30.2513,-88.0778,-1.72,24.0,2 
DISL,ioos:station:DISL:DISL:1,2010-10-03T05:30:00Z,30.2513,-88.0778,-1.72,23.86,2 
DISL,ioos:station:DISL:DISL:1,2010-10-03T06:00:00Z,30.2513,-88.0778,-1.72,23.76,2 
DISL,ioos:station:DISL:DISL:1,2010-10-03T06:30:00Z,30.2513,-88.0778,-1.72,23.6,2 
DISL,ioos:station:DISL:DISL:1,2010-10-03T07:00:00Z,30.2513,-88.0778,-1.72,23.42,2 
DISL,ioos:station:DISL:DISL:1,2010-10-03T07:30:00Z,30.2513,-88.0778,-1.72,22.91,2 
DISL,ioos:station:DISL:DISL:1,2010-10-03T08:00:00Z,30.2513,-88.0778,-1.72,23.37,2 
DISL,ioos:station:DISL:DISL:1,2010-10-03T08:30:00Z,30.2513,-88.0778,-1.72,23.36,2 
DISL,ioos:station:DISL:DISL:1,2010-10-03T09:00:00Z,30.2513,-88.0778,-1.72,23.29,2 
DISL,ioos:station:DISL:DISL:1,2010-10-03T09:30:00Z,30.2513,-88.0778,-1.72,23.08,2 
DISL,ioos:station:DISL:DISL:1,2010-10-03T10:00:00Z,30.2513,-88.0778,-1.72,22.31,2 
DISL,ioos:station:DISL:DISL:1,2010-10-03T10:30:00Z,30.2513,-88.0778,-1.72,22.67,2 
DISL,ioos:station:DISL:DISL:1,2010-10-03T11:00:00Z,30.2513,-88.0778,-1.72,22.61,2 
DISL,ioos:station:DISL:DISL:1,2010-10-03T11:30:00Z,30.2513,-88.0778,-1.72,22.56,2 
DISL,ioos:station:DISL:DISL:1,2010-10-03T12:00:00Z,30.2513,-88.0778,-1.72,21.71,2 
DISL,ioos:station:DISL:DISL:1,2010-10-03T12:30:00Z,30.2513,-88.0778,-1.72,21.54,2 
DISL,ioos:station:DISL:DISL:1,2010-10-03T13:00:00Z,30.2513,-88.0778,-1.72,21.33,2 
DISL,ioos:station:DISL:DISL:1,2010-10-03T13:30:00Z,30.2513,-88.0778,-1.72,21.22,2 
DISL,ioos:station:DISL:DISL:1,2010-10-03T14:00:00Z,30.2513,-88.0778,-1.72,21.31,2 
DISL,ioos:station:DISL:DISL:1,2010-10-03T14:30:00Z,30.2513,-88.0778,-1.72,21.36,2 
DISL,ioos:station:DISL:DISL:1,2010-10-03T15:00:00Z,30.2513,-88.0778,-1.72,21.37,2 
DISL,ioos:station:DISL:DISL:1,2010-10-03T15:30:00Z,30.2513,-88.0778,-1.72,21.43,2 
DISL,ioos:station:DISL:DISL:1,2010-10-03T16:00:00Z,30.2513,-88.0778,-1.72,21.57,2 
DISL,ioos:station:DISL:DISL:1,2010-10-03T16:30:00Z,30.2513,-88.0778,-1.72,21.84,2 
DISL,ioos:station:DISL:DISL:1,2010-10-03T17:00:00Z,30.2513,-88.0778,-1.72,22.15,2 
DISL,ioos:station:DISL:DISL:1,2010-10-03T17:30:00Z,30.2513,-88.0778,-1.72,22.44,2 
DISL,ioos:station:DISL:DISL:1,2010-10-03T18:00:00Z,30.2513,-88.0778,-1.72,22.43,2 
DISL,ioos:station:DISL:DISL:1,2010-10-03T18:30:00Z,30.2513,-88.0778,-1.72,22.59,2 
DISL,ioos:station:DISL:DISL:1,2010-10-03T19:00:00Z,30.2513,-88.0778,-1.72,22.67,2 
DISL,ioos:station:DISL:DISL:1,2010-10-03T19:30:00Z,30.2513,-88.0778,-1.72,22.8,2 
DISL,ioos:station:DISL:DISL:1,2010-10-03T20:00:00Z,30.2513,-88.0778,-1.72,23.12,2 
DISL,ioos:station:DISL:DISL:1,2010-10-03T20:30:00Z,30.2513,-88.0778,-1.72,23.32,2 
DISL,ioos:station:DISL:DISL:1,2010-10-03T21:00:00Z,30.2513,-88.0778,-1.72,23.12,2 
DISL,ioos:station:DISL:DISL:1,2010-10-03T21:30:00Z,30.2513,-88.0778,-1.72,23.14,2 
DISL,ioos:station:DISL:DISL:1,2010-10-03T22:00:00Z,30.2513,-88.0778,-1.72,23.16,2 
DISL,ioos:station:DISL:DISL:1,2010-10-03T22:30:00Z,30.2513,-88.0778,-1.72,23.14,2 
DISL,ioos:station:DISL:DISL:1,2010-10-03T23:00:00Z,30.2513,-88.0778,-1.72,23.16,2 
DISL,ioos:station:DISL:DISL:1,2010-10-03T23:30:00Z,30.2513,-88.0778,-1.72,23.12,2 
DISL,ioos:station:DISL:DISL:1,2010-10-04T00:00:00Z,30.2513,-88.0778,-1.72,23.21,2 
DISL,ioos:station:DISL:DISL:1,2010-10-04T00:30:00Z,30.2513,-88.0778,-1.72,23.16,2 
DISL,ioos:station:DISL:DISL:1,2010-10-04T01:00:00Z,30.2513,-88.0778,-1.72,22.96,2 
DISL,ioos:station:DISL:DISL:1,2010-10-04T01:30:00Z,30.2513,-88.0778,-1.72,22.78,2 
DISL,ioos:station:DISL:DISL:1,2010-10-04T02:00:00Z,30.2513,-88.0778,-1.72,22.03,2 
DISL,ioos:station:DISL:DISL:1,2010-10-04T02:30:00Z,30.2513,-88.0778,-1.72,21.6,2 
DISL,ioos:station:DISL:DISL:1,2010-10-04T03:00:00Z,30.2513,-88.0778,-1.72,20.93,2 
DISL,ioos:station:DISL:DISL:1,2010-10-04T03:30:00Z,30.2513,-88.0778,-1.72,21.12,2 
DISL,ioos:station:DISL:DISL:1,2010-10-04T04:00:00Z,30.2513,-88.0778,-1.72,21.33,2 
DISL,ioos:station:DISL:DISL:1,2010-10-04T04:30:00Z,30.2513,-88.0778,-1.72,21.54,2 
DISL,ioos:station:DISL:DISL:1,2010-10-04T05:00:00Z,30.2513,-88.0778,-1.72,21.53,2 
DISL,ioos:station:DISL:DISL:1,2010-10-04T05:30:00Z,30.2513,-88.0778,-1.72,20.46,2 
DISL,ioos:station:DISL:DISL:1,2010-10-04T06:00:00Z,30.2513,-88.0778,-1.72,19.76,2 
DISL,ioos:station:DISL:DISL:1,2010-10-04T06:30:00Z,30.2513,-88.0778,-1.72,20.65,2 
DISL,ioos:station:DISL:DISL:1,2010-10-04T07:00:00Z,30.2513,-88.0778,-1.72,20.88,2 
DISL,ioos:station:DISL:DISL:1,2010-10-04T07:30:00Z,30.2513,-88.0778,-1.72,20.94,2 
DISL,ioos:station:DISL:DISL:1,2010-10-04T08:00:00Z,30.2513,-88.0778,-1.72,21.05,2 
DISL,ioos:station:DISL:DISL:1,2010-10-04T08:30:00Z,30.2513,-88.0778,-1.72,21.05,2 
DISL,ioos:station:DISL:DISL:1,2010-10-04T09:00:00Z,30.2513,-88.0778,-1.72,21.06,2 
DISL,ioos:station:DISL:DISL:1,2010-10-04T09:30:00Z,30.2513,-88.0778,-1.72,20.87,2 
DISL,ioos:station:DISL:DISL:1,2010-10-04T10:00:00Z,30.2513,-88.0778,-1.72,20.91,2 
DISL,ioos:station:DISL:DISL:1,2010-10-04T10:30:00Z,30.2513,-88.0778,-1.72,20.53,2 
DISL,ioos:station:DISL:DISL:1,2010-10-04T11:00:00Z,30.2513,-88.0778,-1.72,20.22,2 
DISL,ioos:station:DISL:DISL:1,2010-10-04T11:30:00Z,30.2513,-88.0778,-1.72,20.01,2 
DISL,ioos:station:DISL:DISL:1,2010-10-04T12:00:00Z,30.2513,-88.0778,-1.72,19.77,2 
DISL,ioos:station:DISL:DISL:1,2010-10-04T12:30:00Z,30.2513,-88.0778,-1.72,19.57,2 
DISL,ioos:station:DISL:DISL:1,2010-10-04T13:00:00Z,30.2513,-88.0778,-1.72,19.23,2 
DISL,ioos:station:DISL:DISL:1,2010-10-04T13:30:00Z,30.2513,-88.0778,-1.72,18.98,2 
DISL,ioos:station:DISL:DISL:1,2010-10-04T14:00:00Z,30.2513,-88.0778,-1.72,18.67,2 
DISL,ioos:station:DISL:DISL:1,2010-10-04T14:30:00Z,30.2513,-88.0778,-1.72,18.49,2 
DISL,ioos:station:DISL:DISL:1,2010-10-04T15:00:00Z,30.2513,-88.0778,-1.72,18.38,2 
DISL,ioos:station:DISL:DISL:1,2010-10-04T15:30:00Z,30.2513,-88.0778,-1.72,18.33,2 
DISL,ioos:station:DISL:DISL:1,2010-10-04T16:00:00Z,30.2513,-88.0778,-1.72,18.31,2 
DISL,ioos:station:DISL:DISL:1,2010-10-04T16:30:00Z,30.2513,-88.0778,-1.72,18.29,2 
DISL,ioos:station:DISL:DISL:1,2010-10-04T17:00:00Z,30.2513,-88.0778,-1.72,18.36,2 
DISL,ioos:station:DISL:DISL:1,2010-10-04T17:30:00Z,30.2513,-88.0778,-1.72,18.45,2 
DISL,ioos:station:DISL:DISL:1,2010-10-04T18:00:00Z,30.2513,-88.0778,-1.72,18.71,2 
DISL,ioos:station:DISL:DISL:1,2010-10-04T18:30:00Z,30.2513,-88.0778,-1.72,19.62,2 
DISL,ioos:station:DISL:DISL:1,2010-10-04T19:00:00Z,30.2513,-88.0778,-1.72,20.01,2 
DISL,ioos:station:DISL:DISL:1,2010-10-04T19:30:00Z,30.2513,-88.0778,-1.72,20.38,2 
DISL,ioos:station:DISL:DISL:1,2010-10-04T20:00:00Z,30.2513,-88.0778,-1.72,20.55,2 
DISL,ioos:station:DISL:DISL:1,2010-10-04T20:30:00Z,30.2513,-88.0778,-1.72,20.93,2 
DISL,ioos:station:DISL:DISL:1,2010-10-04T21:00:00Z,30.2513,-88.0778,-1.72,21.26,2 
DISL,ioos:station:DISL:DISL:1,2010-10-04T21:30:00Z,30.2513,-88.0778,-1.72,21.47,2 
DISL,ioos:station:DISL:DISL:1,2010-10-04T22:00:00Z,30.2513,-88.0778,-1.72,21.59,2 
DISL,ioos:station:DISL:DISL:1,2010-10-04T22:30:00Z,30.2513,-88.0778,-1.72,21.48,2 
DISL,ioos:station:DISL:DISL:1,2010-10-04T23:00:00Z,30.2513,-88.0778,-1.72,21.29,2 
DISL,ioos:station:DISL:DISL:1,2010-10-04T23:30:00Z,30.2513,-88.0778,-1.72,21.19,2 
DISL,ioos:station:DISL:DISL:1,2010-10-05T00:00:00Z,30.2513,-88.0778,-1.72,21.09,2 
DISL,ioos:station:DISL:DISL:1,2010-10-05T00:30:00Z,30.2513,-88.0778,-1.72,20.95,2 
DISL,ioos:station:DISL:DISL:1,2010-10-05T01:00:00Z,30.2513,-88.0778,-1.72,19.89,2 
DISL,ioos:station:DISL:DISL:1,2010-10-05T01:30:00Z,30.2513,-88.0778,-1.72,20.65,2 
DISL,ioos:station:DISL:DISL:1,2010-10-05T02:00:00Z,30.2513,-88.0778,-1.72,19.59,2 
DISL,ioos:station:DISL:DISL:1,2010-10-05T02:30:00Z,30.2513,-88.0778,-1.72,19.62,2 
DISL,ioos:station:DISL:DISL:1,2010-10-05T03:00:00Z,30.2513,-88.0778,-1.72,19.29,2 
DISL,ioos:station:DISL:DISL:1,2010-10-05T03:30:00Z,30.2513,-88.0778,-1.72,19.41,2 
DISL,ioos:station:DISL:DISL:1,2010-10-05T04:00:00Z,30.2513,-88.0778,-1.72,19.71,2 
DISL,ioos:station:DISL:DISL:1,2010-10-05T04:30:00Z,30.2513,-88.0778,-1.72,19.85,2 
DISL,ioos:station:DISL:DISL:1,2010-10-05T05:00:00Z,30.2513,-88.0778,-1.72,19.76,2 
DISL,ioos:station:DISL:DISL:1,2010-10-05T05:30:00Z,30.2513,-88.0778,-1.72,19.68,2 
DISL,ioos:station:DISL:DISL:1,2010-10-05T06:00:00Z,30.2513,-88.0778,-1.72,19.67,2 
DISL,ioos:station:DISL:DISL:1,2010-10-05T06:30:00Z,30.2513,-88.0778,-1.72,18.66,2 
DISL,ioos:station:DISL:DISL:1,2010-10-05T07:00:00Z,30.2513,-88.0778,-1.72,18.79,2 
DISL,ioos:station:DISL:DISL:1,2010-10-05T07:30:00Z,30.2513,-88.0778,-1.72,19.19,2 
DISL,ioos:station:DISL:DISL:1,2010-10-05T08:00:00Z,30.2513,-88.0778,-1.72,19.12,2 
DISL,ioos:station:DISL:DISL:1,2010-10-05T08:30:00Z,30.2513,-88.0778,-1.72,19.21,2 
DISL,ioos:station:DISL:DISL:1,2010-10-05T09:00:00Z,30.2513,-88.0778,-1.72,19.03,2 
DISL,ioos:station:DISL:DISL:1,2010-10-05T09:30:00Z,30.2513,-88.0778,-1.72,19.24,2 
DISL,ioos:station:DISL:DISL:1,2010-10-05T10:00:00Z,30.2513,-88.0778,-1.72,19.36,2 
DISL,ioos:station:DISL:DISL:1,2010-10-05T10:30:00Z,30.2513,-88.0778,-1.72,19.26,2 
DISL,ioos:station:DISL:DISL:1,2010-10-05T11:00:00Z,30.2513,-88.0778,-1.72,19.09,2 
DISL,ioos:station:DISL:DISL:1,2010-10-05T11:30:00Z,30.2513,-88.0778,-1.72,19.03,2 
DISL,ioos:station:DISL:DISL:1,2010-10-05T12:00:00Z,30.2513,-88.0778,-1.72,19.89,2 
DISL,ioos:station:DISL:DISL:1,2010-10-05T12:30:00Z,30.2513,-88.0778,-1.72,20.79,2 
DISL,ioos:station:DISL:DISL:1,2010-10-05T13:00:00Z,30.2513,-88.0778,-1.72,20.66,2 
DISL,ioos:station:DISL:DISL:1,2010-10-05T13:30:00Z,30.2513,-88.0778,-1.72,20.39,2 
DISL,ioos:station:DISL:DISL:1,2010-10-05T14:00:00Z,30.2513,-88.0778,-1.72,20.01,2 
DISL,ioos:station:DISL:DISL:1,2010-10-05T14:30:00Z,30.2513,-88.0778,-1.72,19.44,2 
DISL,ioos:station:DISL:DISL:1,2010-10-05T15:00:00Z,30.2513,-88.0778,-1.72,19.3,2 
DISL,ioos:station:DISL:DISL:1,2010-10-05T15:30:00Z,30.2513,-88.0778,-1.72,19.27,2 
DISL,ioos:station:DISL:DISL:1,2010-10-05T16:00:00Z,30.2513,-88.0778,-1.72,19.24,2 
DISL,ioos:station:DISL:DISL:1,2010-10-05T16:30:00Z,30.2513,-88.0778,-1.72,19.01,2 
DISL,ioos:station:DISL:DISL:1,2010-10-05T17:00:00Z,30.2513,-88.0778,-1.72,18.66,2 
DISL,ioos:station:DISL:DISL:1,2010-10-05T17:30:00Z,30.2513,-88.0778,-1.72,18.49,2 
DISL,ioos:station:DISL:DISL:1,2010-10-05T18:00:00Z,30.2513,-88.0778,-1.72,18.44,2 
DISL,ioos:station:DISL:DISL:1,2010-10-05T18:30:00Z,30.2513,-88.0778,-1.72,18.45,2 
DISL,ioos:station:DISL:DISL:1,2010-10-05T19:00:00Z,30.2513,-88.0778,-1.72,18.37,2 
DISL,ioos:station:DISL:DISL:1,2010-10-05T19:30:00Z,30.2513,-88.0778,-1.72,18.44,2 
DISL,ioos:station:DISL:DISL:1,2010-10-05T20:00:00Z,30.2513,-88.0778,-1.72,18.89,2 
DISL,ioos:station:DISL:DISL:1,2010-10-05T20:30:00Z,30.2513,-88.0778,-1.72,18.93,2 
DISL,ioos:station:DISL:DISL:1,2010-10-05T21:00:00Z,30.2513,-88.0778,-1.72,19.23,2 
DISL,ioos:station:DISL:DISL:1,2010-10-05T21:30:00Z,30.2513,-88.0778,-1.72,19.4,2 
DISL,ioos:station:DISL:DISL:1,2010-10-05T22:00:00Z,30.2513,-88.0778,-1.72,19.68,2 
DISL,ioos:station:DISL:DISL:1,2010-10-05T22:30:00Z,30.2513,-88.0778,-1.72,19.8,2 
DISL,ioos:station:DISL:DISL:1,2010-10-05T23:00:00Z,30.2513,-88.0778,-1.72,19.86,2 
DISL,ioos:station:DISL:DISL:1,2010-10-05T23:30:00Z,30.2513,-88.0778,-1.72,19.96,2 
DISL,ioos:station:DISL:DISL:1,2010-10-06T00:00:00Z,30.2513,-88.0778,-1.72,19.97,2 
DISL,ioos:station:DISL:DISL:1,2010-10-06T00:30:00Z,30.2513,-88.0778,-1.72,19.01,2 
DISL,ioos:station:DISL:DISL:1,2010-10-06T01:00:00Z,30.2513,-88.0778,-1.72,19.44,2 
DISL,ioos:station:DISL:DISL:1,2010-10-06T01:30:00Z,30.2513,-88.0778,-1.72,19.2,2 
DISL,ioos:station:DISL:DISL:1,2010-10-06T02:00:00Z,30.2513,-88.0778,-1.72,19.16,2 
DISL,ioos:station:DISL:DISL:1,2010-10-06T02:30:00Z,30.2513,-88.0778,-1.72,19.07,2 
DISL,ioos:station:DISL:DISL:1,2010-10-06T03:00:00Z,30.2513,-88.0778,-1.72,19.35,2 
DISL,ioos:station:DISL:DISL:1,2010-10-06T03:30:00Z,30.2513,-88.0778,-1.72,19.96,2 
DISL,ioos:station:DISL:DISL:1,2010-10-06T04:00:00Z,30.2513,-88.0778,-1.72,18.79,2 
DISL,ioos:station:DISL:DISL:1,2010-10-06T04:30:00Z,30.2513,-88.0778,-1.72,18.83,2 
DISL,ioos:station:DISL:DISL:1,2010-10-06T05:00:00Z,30.2513,-88.0778,-1.72,18.3,2 
DISL,ioos:station:DISL:DISL:1,2010-10-06T05:30:00Z,30.2513,-88.0778,-1.72,18.59,2 
DISL,ioos:station:DISL:DISL:1,2010-10-06T06:00:00Z,30.2513,-88.0778,-1.72,18.59,2 
DISL,ioos:station:DISL:DISL:1,2010-10-06T06:30:00Z,30.2513,-88.0778,-1.72,18.48,2 
DISL,ioos:station:DISL:DISL:1,2010-10-06T07:00:00Z,30.2513,-88.0778,-1.72,18.34,2 
DISL,ioos:station:DISL:DISL:1,2010-10-06T07:30:00Z,30.2513,-88.0778,-1.72,17.85,2 
DISL,ioos:station:DISL:DISL:1,2010-10-06T08:00:00Z,30.2513,-88.0778,-1.72,17.91,2 
DISL,ioos:station:DISL:DISL:1,2010-10-06T08:30:00Z,30.2513,-88.0778,-1.72,18.56,2 
DISL,ioos:station:DISL:DISL:1,2010-10-06T09:00:00Z,30.2513,-88.0778,-1.72,18.78,2 
DISL,ioos:station:DISL:DISL:1,2010-10-06T09:30:00Z,30.2513,-88.0778,-1.72,18.79,2 
DISL,ioos:station:DISL:DISL:1,2010-10-06T10:00:00Z,30.2513,-88.0778,-1.72,18.78,2 
DISL,ioos:station:DISL:DISL:1,2010-10-06T10:30:00Z,30.2513,-88.0778,-1.72,18.79,2 
DISL,ioos:station:DISL:DISL:1,2010-10-06T11:00:00Z,30.2513,-88.0778,-1.72,19.87,2 
DISL,ioos:station:DISL:DISL:1,2010-10-06T11:30:00Z,30.2513,-88.0778,-1.72,20.19,2 
DISL,ioos:station:DISL:DISL:1,2010-10-06T12:00:00Z,30.2513,-88.0778,-1.72,20.44,2 
DISL,ioos:station:DISL:DISL:1,2010-10-06T12:30:00Z,30.2513,-88.0778,-1.72,20.31,2 
DISL,ioos:station:DISL:DISL:1,2010-10-06T13:00:00Z,30.2513,-88.0778,-1.72,20.48,2 
DISL,ioos:station:DISL:DISL:1,2010-10-06T13:30:00Z,30.2513,-88.0778,-1.72,20.38,2 
DISL,ioos:station:DISL:DISL:1,2010-10-06T14:00:00Z,30.2513,-88.0778,-1.72,20.97,2 
DISL,ioos:station:DISL:DISL:1,2010-10-06T14:30:00Z,30.2513,-88.0778,-1.72,21.06,2 
DISL,ioos:station:DISL:DISL:1,2010-10-06T15:00:00Z,30.2513,-88.0778,-1.72,20.93,2 
DISL,ioos:station:DISL:DISL:1,2010-10-06T15:30:00Z,30.2513,-88.0778,-1.72,20.5,2 
DISL,ioos:station:DISL:DISL:1,2010-10-06T16:00:00Z,30.2513,-88.0778,-1.72,19.66,2 
DISL,ioos:station:DISL:DISL:1,2010-10-06T16:30:00Z,30.2513,-88.0778,-1.72,19.18,2 
DISL,ioos:station:DISL:DISL:1,2010-10-06T17:00:00Z,30.2513,-88.0778,-1.72,18.75,2 
DISL,ioos:station:DISL:DISL:1,2010-10-06T17:30:00Z,30.2513,-88.0778,-1.72,18.3,2 
DISL,ioos:station:DISL:DISL:1,2010-10-06T18:00:00Z,30.2513,-88.0778,-1.72,18.29,2 
DISL,ioos:station:DISL:DISL:1,2010-10-06T18:30:00Z,30.2513,-88.0778,-1.72,18.42,2 
DISL,ioos:station:DISL:DISL:1,2010-10-06T19:00:00Z,30.2513,-88.0778,-1.72,18.52,2 
DISL,ioos:station:DISL:DISL:1,2010-10-06T19:30:00Z,30.2513,-88.0778,-1.72,18.7,2 
DISL,ioos:station:DISL:DISL:1,2010-10-06T20:00:00Z,30.2513,-88.0778,-1.72,18.86,2 
DISL,ioos:station:DISL:DISL:1,2010-10-06T20:30:00Z,30.2513,-88.0778,-1.72,20.14,2 
DISL,ioos:station:DISL:DISL:1,2010-10-06T21:00:00Z,30.2513,-88.0778,-1.72,20.04,2 
DISL,ioos:station:DISL:DISL:1,2010-10-06T21:30:00Z,30.2513,-88.0778,-1.72,19.9,2 
DISL,ioos:station:DISL:DISL:1,2010-10-06T22:00:00Z,30.2513,-88.0778,-1.72,20.17,2 
DISL,ioos:station:DISL:DISL:1,2010-10-06T22:30:00Z,30.2513,-88.0778,-1.72,20.32,2 
DISL,ioos:station:DISL:DISL:1,2010-10-06T23:00:00Z,30.2513,-88.0778,-1.72,20.43,2 
DISL,ioos:station:DISL:DISL:1,2010-10-06T23:30:00Z,30.2513,-88.0778,-1.72,20.47,2 